Moses Lake, WA
on Saturday, December 1, 2012

Saturday
Previous Day Next Day
Daily Summary
 ActualAverageRecord
Temperature
Mean Temperature °F 32°F  
Max Temperature 53°F 38°F 53°F (2012)
Min Temperature 39°F 25°F -16°F (1985)
Degree Days
Heating Degree Days 19 33  
Month to date heating degree days 19 33  
Since 1 July heating degree days 1287 1494  
Cooling Degree Days 0 0  
Month to date cooling degree days 0 0  
Year to date cooling degree days 719 615  
Moisture
Dew Point 36°F   
Average Humidity 65    
Maximum Humidity 89    
Minimum Humidity 41    
Precipitation
Precipitation 0.02 in 0.04 in 0.24 in (2003)
Month to date precipitation 0.02 0.04  
Year to date precipitation 7.76 7.71  
Wind
Wind Speed 11 mph   
Max Wind Speed 21 mph   
Max Gust Speed 28 mph   
Visibility 10 miles   
Events Rain   

Key: T is trace of precipitation, MM is missing value
Source: NWS Daily Summary
Time(PST)TemperatureDew PointHumidity Pressure Visibility Wind DirectionWind SpeedGust SpeedPrecipitationEvents Conditions
12:52 AM 42.1°F 39.0°F 89% 29.52 in 10.0 miles SSE 6.9 mph - N/A   Scattered Clouds
1:52 AM 45.0°F 39.9°F 82% 29.52 in 10.0 miles South 5.8 mph - N/A   Overcast
2:52 AM 43.0°F 37.9°F 82% 29.52 in 10.0 miles Variable 3.5 mph - N/A   Partly Cloudy
3:52 AM 46.0°F 39.9°F 79% 29.52 in 10.0 miles South 8.1 mph - N/A   Overcast
4:52 AM 48.0°F 39.0°F 71% 29.50 in 10.0 miles South 9.2 mph - N/A   Mostly Cloudy
5:52 AM 48.9°F 37.9°F 66% 29.54 in 10.0 miles South 15.0 mph - N/A   Clear
6:52 AM 48.0°F 37.9°F 68% 29.57 in 10.0 miles South 13.8 mph - N/A   Clear
7:52 AM 46.9°F 37.0°F 68% 29.58 in 10.0 miles SSW 15.0 mph - N/A   Partly Cloudy
8:52 AM 48.0°F 37.0°F 66% 29.62 in 10.0 miles SSW 16.1 mph - N/A   Clear
9:52 AM 50.0°F 36.0°F 59% 29.67 in 10.0 miles SW 16.1 mph 23.0 mph N/A   Clear
10:52 AM 52.0°F 34.0°F 50% 29.82 in 10.0 miles SW 13.8 mph 23.0 mph N/A   Clear
11:52 AM 53.1°F 34.0°F 48% 29.68 in 10.0 miles SSW 15.0 mph - N/A   Clear
12:52 PM 53.1°F 30.9°F 43% 29.68 in 10.0 miles SSW 17.3 mph - N/A   Clear
1:52 PM 52.0°F 30.0°F 43% 29.68 in 10.0 miles SSW 15.0 mph 21.9 mph N/A   Clear
2:52 PM 50.0°F 30.9°F 48% 29.82 in 10.0 miles SSW 11.5 mph - N/A   Clear
3:52 PM 46.9°F 33.1°F 59% 29.81 in 10.0 miles SSE 9.2 mph - N/A   Clear
4:52 PM 46.9°F 33.1°F 59% 29.66 in 10.0 miles South 12.7 mph - N/A   Clear
5:52 PM 43.0°F 34.0°F 71% 29.79 in 10.0 miles SE 5.8 mph - N/A   Clear
6:52 PM 43.0°F 34.0°F 71% 29.77 in 10.0 miles SE 4.6 mph - N/A   Partly Cloudy
7:52 PM 45.0°F 35.1°F 68% 29.74 in 10.0 miles SE 8.1 mph - N/A   Overcast
8:52 PM 44.1°F 36.0°F 73% 29.72 in 10.0 miles SE 6.9 mph - N/A   Overcast
9:52 PM 45.0°F 37.0°F 74% 29.55 in 10.0 miles SE 9.2 mph - 0.00 in   Overcast
10:52 PM 45.0°F 39.0°F 80% 29.52 in 10.0 miles SSE 11.5 mph - 0.01 in Rain Light Rain
11:52 PM 44.1°F 39.9°F 85% 29.47 in 10.0 miles SE 10.4 mph - 0.01 in   Overcast
Moon Phase
Dec. 01 Dec. 06 Dec. 13 Dec. 20 Dec. 28
Sunrise:07:23 AM (PST) Moon Rise:07:07 PM (PST)12/1
Sunset:04:09 PM (PST) Moon Set:09:37 AM (PST)12/1

Copyright © 2014 The Weather Underground, Inc.